Hourly Data Report for July 06, 2022

OTTAWA INTL A
ONTARIO
Current Station Operator: NAVCAN

45°19'00.000" N
75°40'00.000" W
114.90 m
6106001
71628
YOW

Download Data

Hourly Data (July 2022)
Hourly Data Report for July 6, 2022
TIME
LST
Temp Definition
°C
Dew Point Definition
°C
Rel Hum Definition
%
Precip. Amount Definition
mm

Wind Dir Definition
10's deg

Wind Spd Definition
km/h
Visibility Definition
km
Stn Press Definition
kPa
Hmdx Definition


Wind Chill Definition


Weather Definition


00:00 16.9 16.3 96   35 7 9.7 99.42     Fog
01:00 17.2 16.6 96   32 7 12.9 99.52     Rain
02:00 16.9 16.5 98   1 12 2.0 99.50     Rain, Fog
03:00 16.8 16.2 97   35 11 16.1 99.64     LegendNANA
04:00 16.1 15.5 96   35 13 24.1 99.72     Mostly Cloudy
05:00 16.0 14.9 93   35 13 24.1 99.83     LegendNANA
06:00 17.0 14.8 86   35 15 24.1 99.89     LegendNANA
07:00 17.7 14.7 82   35 19 24.1 99.99     Mainly Clear
08:00 18.5 14.4 77   32 21 24.1 100.04     LegendNANA
09:00 18.9 13.0 68   34 22 24.1 100.07     LegendNANA
10:00 20.3 13.3 64   35 22 24.1 100.10     Mainly Clear
11:00 21.8 12.9 57   36 22 24.1 100.14 25   LegendNANA
12:00 23.0 12.6 52   36 23 24.1 100.13 26   LegendNANA
13:00 21.5 12.4 56   36 19 24.1 100.14     Mostly Cloudy
14:00 23.3 11.4 47   35 17 24.1 100.14 25   LegendNANA
15:00 22.6 10.9 47   34 13 24.1 100.18     LegendNANA
16:00 22.9 11.2 47   34 14 24.1 100.18 25   Mainly Clear
17:00 22.7 10.4 45   32 13 24.1 100.18     LegendNANA
18:00 23.4 10.3 43   36 17 24.1 100.17 25   LegendNANA
19:00 21.6 8.8 43   32 17 24.1 100.19     Mainly Clear
20:00 19.5 8.6 49   34 11 24.1 100.24     LegendNANA
21:00 19.0 8.1 49   34 11 24.1 100.31     LegendNANA
22:00 18.0 8.2 52   36 8 24.1 100.32     Clear
23:00 16.0 8.4 60   36 3 24.1 100.32     LegendNANA

Notes on Data Quality.

Legend

  • E = Estimated
  • M = Missing
  • NA = Not Available*
  • [empty] = Indicates an unobserved value
Date modified: